Year,Month,Day,Hour,Minute,Value (Times are PST for temperature in C)
2023,05,13,00,00,15.10
2023,05,13,00,01,15.20
2023,05,13,00,02,15.30
2023,05,13,00,03,15.30
2023,05,13,00,04,15.20
2023,05,13,00,05,15.10
2023,05,13,00,06,15.10
2023,05,13,00,07,15.10
2023,05,13,00,08,15.10
2023,05,13,00,09,15.10
2023,05,13,00,10,15.10
2023,05,13,00,11,15.10
2023,05,13,00,12,15.10
2023,05,13,00,13,15.10
2023,05,13,00,14,15.00
2023,05,13,00,15,15.00
2023,05,13,00,16,15.00
2023,05,13,00,17,15.10
2023,05,13,00,18,15.20
2023,05,13,00,19,15.20
2023,05,13,00,20,15.20
2023,05,13,00,21,15.20
2023,05,13,00,22,15.20
2023,05,13,00,23,15.20
2023,05,13,00,24,15.10
2023,05,13,00,25,15.10
2023,05,13,00,26,15.00
2023,05,13,00,27,15.00
2023,05,13,00,28,15.00
2023,05,13,00,29,15.10
2023,05,13,00,30,15.10
2023,05,13,00,31,15.20
2023,05,13,00,32,15.30
2023,05,13,00,33,15.20
2023,05,13,00,34,15.10
2023,05,13,00,35,15.10
2023,05,13,00,36,15.10
2023,05,13,00,37,15.00
2023,05,13,00,38,14.90
2023,05,13,00,39,14.80
2023,05,13,00,40,14.80
2023,05,13,00,41,14.80
2023,05,13,00,42,14.80
2023,05,13,00,43,14.70
2023,05,13,00,44,14.70
2023,05,13,00,45,14.70
2023,05,13,00,46,14.70
2023,05,13,00,47,14.70
2023,05,13,00,48,14.80
2023,05,13,00,49,14.80
2023,05,13,00,50,14.80
2023,05,13,00,51,14.80
2023,05,13,00,52,14.90
2023,05,13,00,53,14.90
2023,05,13,00,54,14.90
2023,05,13,00,55,14.90
2023,05,13,00,56,14.90
2023,05,13,00,57,14.90
2023,05,13,00,58,14.90
2023,05,13,00,59,15.00
2023,05,13,01,00,15.00
2023,05,13,01,01,15.00
2023,05,13,01,02,15.00
2023,05,13,01,03,15.00
2023,05,13,01,04,15.10
2023,05,13,01,05,15.10
2023,05,13,01,06,15.10
2023,05,13,01,07,15.10
2023,05,13,01,08,15.10
2023,05,13,01,09,15.10
2023,05,13,01,10,15.10
2023,05,13,01,11,15.10
2023,05,13,01,12,15.10
2023,05,13,01,13,15.10
2023,05,13,01,14,15.10
2023,05,13,01,15,15.10
2023,05,13,01,16,15.10
2023,05,13,01,17,15.10
2023,05,13,01,18,15.10
2023,05,13,01,19,15.10
2023,05,13,01,20,15.10
2023,05,13,01,21,15.10
2023,05,13,01,22,15.10
2023,05,13,01,23,15.10
2023,05,13,01,24,15.10
2023,05,13,01,25,15.10
2023,05,13,01,26,15.10
2023,05,13,01,27,15.00
2023,05,13,01,28,15.00
2023,05,13,01,29,14.90
2023,05,13,01,30,14.90
2023,05,13,01,31,14.90
2023,05,13,01,32,14.80
2023,05,13,01,33,14.80
2023,05,13,01,34,14.70
2023,05,13,01,35,14.70
2023,05,13,01,36,14.70
2023,05,13,01,37,14.60
2023,05,13,01,38,14.60
2023,05,13,01,39,14.60
2023,05,13,01,40,14.60
2023,05,13,01,41,14.50
2023,05,13,01,42,14.50
2023,05,13,01,43,14.50
2023,05,13,01,44,14.50
2023,05,13,01,45,14.40
2023,05,13,01,46,14.40
2023,05,13,01,47,14.40
2023,05,13,01,48,14.40
2023,05,13,01,49,14.40
2023,05,13,01,50,14.40
2023,05,13,01,51,14.40
2023,05,13,01,52,14.40
2023,05,13,01,53,14.40
2023,05,13,01,54,14.40
2023,05,13,01,55,14.40
2023,05,13,01,56,14.50
2023,05,13,01,57,14.50
2023,05,13,01,58,14.60
2023,05,13,01,59,14.70
2023,05,13,02,00,14.80
2023,05,13,02,01,14.90
2023,05,13,02,02,15.00
2023,05,13,02,03,15.00
2023,05,13,02,04,15.10
2023,05,13,02,05,15.10
2023,05,13,02,06,15.10
2023,05,13,02,07,15.10
2023,05,13,02,08,15.00
2023,05,13,02,09,14.90
2023,05,13,02,10,14.90
2023,05,13,02,11,14.80
2023,05,13,02,12,14.70
2023,05,13,02,13,14.70
2023,05,13,02,14,14.60
2023,05,13,02,15,14.50
2023,05,13,02,16,14.50
2023,05,13,02,17,14.50
2023,05,13,02,18,14.50
2023,05,13,02,19,14.50
2023,05,13,02,20,14.50
2023,05,13,02,21,14.50
2023,05,13,02,22,14.50
2023,05,13,02,23,14.50
2023,05,13,02,24,14.60
2023,05,13,02,25,14.70
2023,05,13,02,26,14.80
2023,05,13,02,27,14.80
2023,05,13,02,28,14.90
2023,05,13,02,29,14.90
2023,05,13,02,30,14.90
2023,05,13,02,31,14.90
2023,05,13,02,32,14.90
2023,05,13,02,33,14.90
2023,05,13,02,34,14.80
2023,05,13,02,35,14.80
2023,05,13,02,36,14.80
2023,05,13,02,37,14.70
2023,05,13,02,38,14.70
2023,05,13,02,39,14.80
2023,05,13,02,40,14.80
2023,05,13,02,41,14.90
2023,05,13,02,42,14.90
2023,05,13,02,43,14.90
2023,05,13,02,44,15.00
2023,05,13,02,45,15.00
2023,05,13,02,46,15.10
2023,05,13,02,47,15.20
2023,05,13,02,48,15.20
2023,05,13,02,49,15.30
2023,05,13,02,50,15.30
2023,05,13,02,51,15.30
2023,05,13,02,52,15.30
2023,05,13,02,53,15.30
2023,05,13,02,54,15.30
2023,05,13,02,55,15.40
2023,05,13,02,56,15.40
2023,05,13,02,57,15.40
2023,05,13,02,58,15.40
2023,05,13,02,59,15.40
2023,05,13,03,00,15.40
2023,05,13,03,01,15.40
2023,05,13,03,02,15.40
2023,05,13,03,03,15.40
2023,05,13,03,04,15.40
2023,05,13,03,05,15.30
2023,05,13,03,06,15.20
2023,05,13,03,07,15.10
2023,05,13,03,08,15.00
2023,05,13,03,09,14.80
2023,05,13,03,10,14.60
2023,05,13,03,11,14.30
2023,05,13,03,12,14.20
2023,05,13,03,13,14.10
2023,05,13,03,14,14.10
2023,05,13,03,15,14.10
2023,05,13,03,16,14.10
2023,05,13,03,17,14.10
2023,05,13,03,18,14.10
2023,05,13,03,19,14.10
2023,05,13,03,20,14.20
2023,05,13,03,21,14.20
2023,05,13,03,22,14.20
2023,05,13,03,23,14.30
2023,05,13,03,24,14.40
2023,05,13,03,25,14.50
2023,05,13,03,26,14.60
2023,05,13,03,27,14.60
2023,05,13,03,28,14.60
2023,05,13,03,29,14.50
2023,05,13,03,30,14.50
2023,05,13,03,31,14.40
2023,05,13,03,32,14.30
2023,05,13,03,33,14.30
2023,05,13,03,34,14.30
2023,05,13,03,35,14.20
2023,05,13,03,36,14.20
2023,05,13,03,37,14.20
2023,05,13,03,38,14.20
2023,05,13,03,39,14.20
2023,05,13,03,40,14.20
2023,05,13,03,41,14.20
2023,05,13,03,42,14.30
2023,05,13,03,43,14.30
2023,05,13,03,44,14.40
2023,05,13,03,45,14.60
2023,05,13,03,46,14.70
2023,05,13,03,47,14.80
2023,05,13,03,48,14.90
2023,05,13,03,49,15.00
2023,05,13,03,50,15.00
2023,05,13,03,51,15.00
2023,05,13,03,52,14.90
2023,05,13,03,53,14.70
2023,05,13,03,54,14.60
2023,05,13,03,55,14.40
2023,05,13,03,56,14.30
2023,05,13,03,57,14.30
2023,05,13,03,58,14.30
2023,05,13,03,59,14.40
2023,05,13,04,00,14.40
2023,05,13,04,01,14.50
2023,05,13,04,02,14.60
2023,05,13,04,03,14.70
2023,05,13,04,04,14.70
2023,05,13,04,05,14.80
2023,05,13,04,06,14.80
2023,05,13,04,07,14.80
2023,05,13,04,08,14.80
2023,05,13,04,09,14.90
2023,05,13,04,10,15.00
2023,05,13,04,11,15.10
2023,05,13,04,12,15.10
2023,05,13,04,13,15.00
2023,05,13,04,14,14.90
2023,05,13,04,15,14.80
2023,05,13,04,16,14.60
2023,05,13,04,17,14.50
2023,05,13,04,18,14.30
2023,05,13,04,19,14.20
2023,05,13,04,20,14.10
2023,05,13,04,21,13.90
2023,05,13,04,22,13.90
2023,05,13,04,23,13.80
2023,05,13,04,24,13.70
2023,05,13,04,25,13.70
2023,05,13,04,26,13.70
2023,05,13,04,27,13.60
2023,05,13,04,28,13.60
2023,05,13,04,29,13.60
2023,05,13,04,30,13.60
2023,05,13,04,31,13.60
2023,05,13,04,32,13.60
2023,05,13,04,33,13.60
2023,05,13,04,34,13.60
2023,05,13,04,35,13.60
2023,05,13,04,36,13.60
2023,05,13,04,37,13.60
2023,05,13,04,38,13.60
2023,05,13,04,39,13.60
2023,05,13,04,40,13.60
2023,05,13,04,41,13.70
2023,05,13,04,42,13.70
2023,05,13,04,43,13.70
2023,05,13,04,44,13.70
2023,05,13,04,45,13.70
2023,05,13,04,46,13.70
2023,05,13,04,47,13.70
2023,05,13,04,48,13.80
2023,05,13,04,49,13.80
2023,05,13,04,50,13.80
2023,05,13,04,51,13.90
2023,05,13,04,52,14.00
2023,05,13,04,53,14.00
2023,05,13,04,54,14.10
2023,05,13,04,55,14.20
2023,05,13,04,56,14.20
2023,05,13,04,57,14.20
2023,05,13,04,58,14.20
2023,05,13,04,59,14.30
2023,05,13,05,00,14.30
2023,05,13,05,01,14.30
2023,05,13,05,02,14.30
2023,05,13,05,03,14.30
2023,05,13,05,04,14.30
2023,05,13,05,05,14.30
2023,05,13,05,06,14.30
2023,05,13,05,07,14.30
2023,05,13,05,08,14.30
2023,05,13,05,09,14.30
2023,05,13,05,10,14.40
2023,05,13,05,11,14.40
2023,05,13,05,12,14.40
2023,05,13,05,13,14.40
2023,05,13,05,14,14.40
2023,05,13,05,15,14.40
2023,05,13,05,16,14.40
2023,05,13,05,17,14.40
2023,05,13,05,18,14.30
2023,05,13,05,19,14.30
2023,05,13,05,20,14.30
2023,05,13,05,21,14.30
2023,05,13,05,22,14.30
2023,05,13,05,23,14.30
2023,05,13,05,24,14.30
2023,05,13,05,25,14.30
2023,05,13,05,26,14.30
2023,05,13,05,27,14.30
2023,05,13,05,28,14.30
2023,05,13,05,29,14.30
2023,05,13,05,30,14.30
2023,05,13,05,31,14.30
2023,05,13,05,32,14.30
2023,05,13,05,33,14.30
2023,05,13,05,34,14.20
2023,05,13,05,35,14.20
2023,05,13,05,36,14.20
2023,05,13,05,37,14.20
2023,05,13,05,38,14.10
2023,05,13,05,39,14.10
2023,05,13,05,40,14.00
2023,05,13,05,41,14.00
2023,05,13,05,42,13.90
2023,05,13,05,43,13.90
2023,05,13,05,44,13.80
2023,05,13,05,45,13.80
2023,05,13,05,46,13.80
2023,05,13,05,47,13.80
2023,05,13,05,48,13.70
2023,05,13,05,49,13.70
2023,05,13,05,50,13.70
2023,05,13,05,51,13.70
2023,05,13,05,52,13.70
2023,05,13,05,53,13.70
2023,05,13,05,54,13.80
2023,05,13,05,55,13.80
2023,05,13,05,56,13.90
2023,05,13,05,57,13.90
2023,05,13,05,58,13.90
2023,05,13,05,59,13.90
2023,05,13,06,00,13.90
2023,05,13,06,01,14.00
2023,05,13,06,02,14.00
2023,05,13,06,03,14.10
2023,05,13,06,04,14.10
2023,05,13,06,05,14.10
2023,05,13,06,06,14.20
2023,05,13,06,07,14.20
2023,05,13,06,08,14.30
2023,05,13,06,09,14.30
2023,05,13,06,10,14.40
2023,05,13,06,11,14.40
2023,05,13,06,12,14.40
2023,05,13,06,13,14.40
2023,05,13,06,14,14.40
2023,05,13,06,15,14.40
2023,05,13,06,16,14.40
2023,05,13,06,17,14.40
2023,05,13,06,18,14.40
2023,05,13,06,19,14.30
2023,05,13,06,20,14.20
2023,05,13,06,21,14.10
2023,05,13,06,22,14.00
2023,05,13,06,23,14.00
2023,05,13,06,24,13.90
2023,05,13,06,25,13.90
2023,05,13,06,26,13.80
2023,05,13,06,27,13.80
2023,05,13,06,28,13.80
2023,05,13,06,29,13.80
2023,05,13,06,30,13.90
2023,05,13,06,31,13.90
2023,05,13,06,32,14.00
2023,05,13,06,33,14.10
2023,05,13,06,34,14.20
2023,05,13,06,35,14.20
2023,05,13,06,36,14.30
2023,05,13,06,37,14.40
2023,05,13,06,38,14.40
2023,05,13,06,39,14.40
2023,05,13,06,40,14.30
2023,05,13,06,41,14.10
2023,05,13,06,42,13.80
2023,05,13,06,43,13.60
2023,05,13,06,44,13.50
2023,05,13,06,45,13.40
2023,05,13,06,46,13.40
2023,05,13,06,47,13.50
2023,05,13,06,48,13.50
2023,05,13,06,49,13.50
2023,05,13,06,50,13.50
2023,05,13,06,51,13.40
2023,05,13,06,52,13.30
2023,05,13,06,53,13.30
2023,05,13,06,54,13.30
2023,05,13,06,55,13.20
2023,05,13,06,56,13.20
2023,05,13,06,57,13.10
2023,05,13,06,58,13.10
2023,05,13,06,59,13.10
2023,05,13,07,00,13.10
2023,05,13,07,01,13.00
2023,05,13,07,02,13.00
2023,05,13,07,03,13.00
2023,05,13,07,04,13.00
2023,05,13,07,05,13.10
2023,05,13,07,06,13.10
2023,05,13,07,07,13.10
2023,05,13,07,08,13.10
2023,05,13,07,09,13.10
2023,05,13,07,10,13.10
2023,05,13,07,11,13.00
2023,05,13,07,12,12.90
2023,05,13,07,13,12.90
2023,05,13,07,14,12.80
2023,05,13,07,15,12.80
2023,05,13,07,16,12.70
2023,05,13,07,17,12.70
2023,05,13,07,18,12.60
2023,05,13,07,19,12.60
2023,05,13,07,20,12.50
2023,05,13,07,21,12.50
2023,05,13,07,22,12.40
2023,05,13,07,23,12.40
2023,05,13,07,24,12.40
2023,05,13,07,25,12.40
2023,05,13,07,26,12.40
2023,05,13,07,27,12.40
2023,05,13,07,28,12.50
2023,05,13,07,29,12.60
2023,05,13,07,30,12.60
2023,05,13,07,31,12.70
2023,05,13,07,32,12.90
2023,05,13,07,33,12.90
2023,05,13,07,34,12.90
2023,05,13,07,35,13.00
2023,05,13,07,36,13.00
2023,05,13,07,37,13.00
2023,05,13,07,38,13.00
2023,05,13,07,39,13.10
2023,05,13,07,40,13.10
2023,05,13,07,41,13.10
2023,05,13,07,42,13.10
2023,05,13,07,43,13.20
2023,05,13,07,44,13.20
2023,05,13,07,45,13.20
2023,05,13,07,46,13.30
2023,05,13,07,47,13.30
2023,05,13,07,48,13.40
2023,05,13,07,49,13.40
2023,05,13,07,50,13.50
2023,05,13,07,51,13.50
2023,05,13,07,52,13.60
2023,05,13,07,53,13.70
2023,05,13,07,54,13.80
2023,05,13,07,55,13.80
2023,05,13,07,56,13.90
2023,05,13,07,57,14.10
2023,05,13,07,58,14.20
2023,05,13,07,59,14.30
2023,05,13,08,00,14.30
2023,05,13,08,01,14.30
2023,05,13,08,02,14.30
2023,05,13,08,03,14.40
2023,05,13,08,04,14.40
2023,05,13,08,05,14.50
2023,05,13,08,06,14.50
2023,05,13,08,07,14.40
2023,05,13,08,08,14.40
2023,05,13,08,09,14.40
2023,05,13,08,10,14.40
2023,05,13,08,11,14.50
2023,05,13,08,12,14.60
2023,05,13,08,13,14.70
2023,05,13,08,14,14.70
2023,05,13,08,15,14.70
2023,05,13,08,16,14.70
2023,05,13,08,17,14.70
2023,05,13,08,18,14.60
2023,05,13,08,19,14.60
2023,05,13,08,20,14.50
2023,05,13,08,21,14.40
2023,05,13,08,22,14.40
2023,05,13,08,23,14.40
2023,05,13,08,24,14.30
2023,05,13,08,25,14.30
2023,05,13,08,26,14.30
2023,05,13,08,27,14.30
2023,05,13,08,28,14.30
2023,05,13,08,29,14.40
2023,05,13,08,30,14.50
2023,05,13,08,31,14.60
2023,05,13,08,32,14.80
2023,05,13,08,33,14.80
2023,05,13,08,34,14.90
2023,05,13,08,35,15.00
2023,05,13,08,36,15.10
2023,05,13,08,37,15.20
2023,05,13,08,38,15.20
2023,05,13,08,39,15.20
2023,05,13,08,40,15.20
2023,05,13,08,41,15.20
2023,05,13,08,42,15.30
2023,05,13,08,43,15.40
2023,05,13,08,44,15.50
2023,05,13,08,45,15.60
2023,05,13,08,46,15.60
2023,05,13,08,47,15.80
2023,05,13,08,48,15.90
2023,05,13,08,49,16.00
2023,05,13,08,50,16.00
2023,05,13,08,51,16.10
2023,05,13,08,52,16.10
2023,05,13,08,53,16.20
2023,05,13,08,54,16.30
2023,05,13,08,55,16.30
2023,05,13,08,56,16.40
2023,05,13,08,57,16.50
2023,05,13,08,58,16.60
2023,05,13,08,59,16.70
2023,05,13,09,00,16.80
2023,05,13,09,01,16.90
2023,05,13,09,02,17.00
2023,05,13,09,03,17.10
2023,05,13,09,04,17.10
2023,05,13,09,05,17.20
2023,05,13,09,06,17.30
2023,05,13,09,07,17.40
2023,05,13,09,08,17.40
2023,05,13,09,09,17.40
2023,05,13,09,10,17.50
2023,05,13,09,11,17.50
2023,05,13,09,12,17.60
2023,05,13,09,13,17.60
2023,05,13,09,14,17.60
2023,05,13,09,15,17.70
2023,05,13,09,16,17.70
2023,05,13,09,17,17.70
2023,05,13,09,18,17.70
2023,05,13,09,19,17.70
2023,05,13,09,20,17.60
2023,05,13,09,21,17.60
2023,05,13,09,22,17.70
2023,05,13,09,23,17.70
2023,05,13,09,24,17.80
2023,05,13,09,25,17.90
2023,05,13,09,26,17.90
2023,05,13,09,27,18.00
2023,05,13,09,28,18.00
2023,05,13,09,29,18.00
2023,05,13,09,30,18.10
2023,05,13,09,31,18.20
2023,05,13,09,32,18.30
2023,05,13,09,33,18.30
2023,05,13,09,34,18.30
2023,05,13,09,35,18.20
2023,05,13,09,36,18.30
2023,05,13,09,37,18.30
2023,05,13,09,38,18.50
2023,05,13,09,39,18.60
2023,05,13,09,40,18.80
2023,05,13,09,41,18.90
2023,05,13,09,42,19.10
2023,05,13,09,43,19.10
2023,05,13,09,44,19.10
2023,05,13,09,45,19.00
2023,05,13,09,46,19.00
2023,05,13,09,47,19.10
2023,05,13,09,48,19.30
2023,05,13,09,49,19.50
2023,05,13,09,50,19.60
2023,05,13,09,51,19.60
2023,05,13,09,52,19.60
2023,05,13,09,53,19.70
2023,05,13,09,54,19.70
2023,05,13,09,55,19.60
2023,05,13,09,56,19.60
2023,05,13,09,57,19.50
2023,05,13,09,58,19.40
2023,05,13,09,59,19.40
2023,05,13,10,00,19.50
2023,05,13,10,01,19.70
2023,05,13,10,02,19.70
2023,05,13,10,03,19.80
2023,05,13,10,04,19.90
2023,05,13,10,05,19.90
2023,05,13,10,06,20.00
2023,05,13,10,07,20.10
2023,05,13,10,08,20.20
2023,05,13,10,09,20.30
2023,05,13,10,10,20.30
2023,05,13,10,11,20.40
2023,05,13,10,12,20.40
2023,05,13,10,13,20.40
2023,05,13,10,14,20.30
2023,05,13,10,15,20.20
2023,05,13,10,16,20.10
2023,05,13,10,17,20.00
2023,05,13,10,18,19.90
2023,05,13,10,19,20.00
2023,05,13,10,20,20.00
2023,05,13,10,21,20.00
2023,05,13,10,22,19.90
2023,05,13,10,23,19.90
2023,05,13,10,24,19.90
2023,05,13,10,25,19.80
2023,05,13,10,26,19.80
2023,05,13,10,27,19.90
2023,05,13,10,28,20.00
2023,05,13,10,29,20.10
2023,05,13,10,30,20.20
2023,05,13,10,31,20.40
2023,05,13,10,32,20.60
2023,05,13,10,33,20.70
2023,05,13,10,34,20.80
2023,05,13,10,35,20.80
2023,05,13,10,36,20.90
2023,05,13,10,37,20.90
2023,05,13,10,38,20.80
2023,05,13,10,39,20.90
2023,05,13,10,40,21.00
2023,05,13,10,41,21.00
2023,05,13,10,42,20.90
2023,05,13,10,43,20.70
2023,05,13,10,44,20.50
2023,05,13,10,45,20.40
2023,05,13,10,46,20.30
2023,05,13,10,47,20.30
2023,05,13,10,48,20.20
2023,05,13,10,49,20.10
2023,05,13,10,50,20.00
2023,05,13,10,51,19.90
2023,05,13,10,52,19.90
2023,05,13,10,53,20.00
2023,05,13,10,54,20.00
2023,05,13,10,55,20.00
2023,05,13,10,56,20.00
2023,05,13,10,57,20.10
2023,05,13,10,58,20.30
2023,05,13,10,59,20.60
2023,05,13,11,00,20.70
2023,05,13,11,01,20.90
2023,05,13,11,02,21.00
2023,05,13,11,03,21.00
2023,05,13,11,04,20.80
2023,05,13,11,05,20.50
2023,05,13,11,06,20.20
2023,05,13,11,07,20.10
2023,05,13,11,08,20.10
2023,05,13,11,09,20.20
2023,05,13,11,10,20.20
2023,05,13,11,11,20.30
2023,05,13,11,12,20.30
2023,05,13,11,13,20.30
2023,05,13,11,14,20.30
2023,05,13,11,15,20.30
2023,05,13,11,16,20.30
2023,05,13,11,17,20.30
2023,05,13,11,18,20.40
2023,05,13,11,19,20.30
2023,05,13,11,20,20.30
2023,05,13,11,21,20.30
2023,05,13,11,22,20.30
2023,05,13,11,23,20.30
2023,05,13,11,24,20.30
2023,05,13,11,25,20.20
2023,05,13,11,26,20.20
2023,05,13,11,27,20.20
2023,05,13,11,28,20.20
2023,05,13,11,29,20.20
2023,05,13,11,30,20.20
2023,05,13,11,31,20.20
2023,05,13,11,32,20.10
2023,05,13,11,33,20.10
2023,05,13,11,34,20.20
2023,05,13,11,35,20.30
2023,05,13,11,36,20.30
2023,05,13,11,37,20.40
2023,05,13,11,38,20.50
2023,05,13,11,39,20.50
2023,05,13,11,40,20.40
2023,05,13,11,41,20.30
2023,05,13,11,42,20.20
2023,05,13,11,43,20.10
2023,05,13,11,44,20.10
2023,05,13,11,45,20.20
2023,05,13,11,46,20.20
2023,05,13,11,47,20.20
2023,05,13,11,48,20.20
2023,05,13,11,49,20.10
2023,05,13,11,50,20.00
2023,05,13,11,51,19.90
2023,05,13,11,52,19.70
2023,05,13,11,53,19.50
2023,05,13,11,54,19.40
2023,05,13,11,55,19.30
2023,05,13,11,56,19.30
2023,05,13,11,57,19.40
2023,05,13,11,58,19.50
2023,05,13,11,59,19.60
2023,05,13,12,00,19.60
2023,05,13,12,01,19.70
2023,05,13,12,02,19.60
2023,05,13,12,03,19.50
2023,05,13,12,04,19.20
2023,05,13,12,05,18.70
2023,05,13,12,06,18.40
2023,05,13,12,07,18.20
2023,05,13,12,08,18.30
2023,05,13,12,09,18.40
2023,05,13,12,10,18.60
2023,05,13,12,11,18.80
2023,05,13,12,12,18.90
2023,05,13,12,13,19.10
2023,05,13,12,14,19.20
2023,05,13,12,15,19.40
2023,05,13,12,16,19.50
2023,05,13,12,17,19.60
2023,05,13,12,18,19.60
2023,05,13,12,19,19.70
2023,05,13,12,20,19.90
2023,05,13,12,21,20.00
2023,05,13,12,22,20.00
2023,05,13,12,23,20.00
2023,05,13,12,24,19.90
2023,05,13,12,25,19.90
2023,05,13,12,26,19.80
2023,05,13,12,27,19.90
2023,05,13,12,28,20.00
2023,05,13,12,29,20.20
2023,05,13,12,30,20.30
2023,05,13,12,31,20.40
2023,05,13,12,32,20.40
2023,05,13,12,33,20.30
2023,05,13,12,34,20.40
2023,05,13,12,35,20.30
2023,05,13,12,36,20.30
2023,05,13,12,37,20.30
2023,05,13,12,38,20.20
2023,05,13,12,39,20.30
2023,05,13,12,40,20.40
2023,05,13,12,41,20.40
2023,05,13,12,42,20.40
2023,05,13,12,43,20.40
2023,05,13,12,44,20.30
2023,05,13,12,45,20.20
2023,05,13,12,46,20.10
2023,05,13,12,47,19.90
2023,05,13,12,48,19.70
2023,05,13,12,49,19.60
2023,05,13,12,50,19.60
2023,05,13,12,51,19.50
2023,05,13,12,52,19.70
2023,05,13,12,53,19.90
2023,05,13,12,54,20.00
2023,05,13,12,55,20.10
2023,05,13,12,56,20.20
2023,05,13,12,57,20.20
2023,05,13,12,58,20.10
2023,05,13,12,59,20.20
2023,05,13,13,00,20.30
2023,05,13,13,01,20.40
2023,05,13,13,02,20.40
2023,05,13,13,03,20.30
2023,05,13,13,04,20.30
2023,05,13,13,05,20.50
2023,05,13,13,06,20.70
2023,05,13,13,07,20.70
2023,05,13,13,08,20.70
2023,05,13,13,09,20.90
2023,05,13,13,10,21.00
2023,05,13,13,11,21.10
2023,05,13,13,12,21.20
2023,05,13,13,13,21.20
2023,05,13,13,14,21.30
2023,05,13,13,15,21.30
2023,05,13,13,16,21.40
2023,05,13,13,17,21.40
2023,05,13,13,18,21.40
2023,05,13,13,19,21.40
2023,05,13,13,20,21.30
2023,05,13,13,21,21.30
2023,05,13,13,22,21.40
2023,05,13,13,23,21.50
2023,05,13,13,24,21.60
2023,05,13,13,25,21.70
2023,05,13,13,26,21.70
2023,05,13,13,27,21.70
2023,05,13,13,28,21.70
2023,05,13,13,29,21.70
2023,05,13,13,30,21.70
2023,05,13,13,31,21.70
2023,05,13,13,32,21.70
2023,05,13,13,33,21.60
2023,05,13,13,34,21.70
2023,05,13,13,35,21.70
2023,05,13,13,36,21.70
2023,05,13,13,37,21.70
2023,05,13,13,38,21.70
2023,05,13,13,39,21.70
2023,05,13,13,40,21.70
2023,05,13,13,41,21.70
2023,05,13,13,42,21.60
2023,05,13,13,43,21.50
2023,05,13,13,44,21.40
2023,05,13,13,45,21.40
2023,05,13,13,46,21.30
2023,05,13,13,47,21.30
2023,05,13,13,48,21.30
2023,05,13,13,49,21.20
2023,05,13,13,50,21.10
2023,05,13,13,51,21.10
2023,05,13,13,52,21.10
2023,05,13,13,53,21.10
2023,05,13,13,54,21.10
2023,05,13,13,55,21.10
2023,05,13,13,56,21.20
2023,05,13,13,57,21.30
2023,05,13,13,58,21.40
2023,05,13,13,59,21.50
2023,05,13,14,00,21.50
2023,05,13,14,01,21.50
2023,05,13,14,02,21.50
2023,05,13,14,03,21.50
2023,05,13,14,04,21.40
2023,05,13,14,05,21.50
2023,05,13,14,06,21.40
2023,05,13,14,07,21.40
2023,05,13,14,08,21.40
2023,05,13,14,09,21.50
2023,05,13,14,10,21.50
2023,05,13,14,11,21.60
2023,05,13,14,12,21.70
2023,05,13,14,13,21.80
2023,05,13,14,14,21.90
2023,05,13,14,15,21.90
2023,05,13,14,16,22.00
2023,05,13,14,17,22.10
2023,05,13,14,18,22.10
2023,05,13,14,19,22.10
2023,05,13,14,20,22.10
2023,05,13,14,21,22.00
2023,05,13,14,22,21.80
2023,05,13,14,23,21.90
2023,05,13,14,24,22.10
2023,05,13,14,25,22.20
2023,05,13,14,26,22.30
2023,05,13,14,27,22.30
2023,05,13,14,28,22.30
2023,05,13,14,29,22.30
2023,05,13,14,30,22.30
2023,05,13,14,31,22.30
2023,05,13,14,32,22.20
2023,05,13,14,33,22.20
2023,05,13,14,34,22.30
2023,05,13,14,35,22.30
2023,05,13,14,36,22.30
2023,05,13,14,37,22.30
2023,05,13,14,38,22.30
2023,05,13,14,39,22.30
2023,05,13,14,40,22.30
2023,05,13,14,41,22.30
2023,05,13,14,42,22.20
2023,05,13,14,43,22.20
2023,05,13,14,44,22.10
2023,05,13,14,45,22.10
2023,05,13,14,46,22.00
2023,05,13,14,47,22.00
2023,05,13,14,48,21.90
2023,05,13,14,49,21.80
2023,05,13,14,50,21.80
2023,05,13,14,51,21.80
2023,05,13,14,52,21.80
2023,05,13,14,53,21.80
2023,05,13,14,54,21.80
2023,05,13,14,55,21.80
2023,05,13,14,56,21.80
2023,05,13,14,57,21.90
2023,05,13,14,58,22.00
2023,05,13,14,59,22.10
2023,05,13,15,00,22.10
2023,05,13,15,01,22.10
2023,05,13,15,02,22.20
2023,05,13,15,03,22.30
2023,05,13,15,04,22.40
2023,05,13,15,05,22.50
2023,05,13,15,06,22.50
2023,05,13,15,07,22.60
2023,05,13,15,08,22.60
2023,05,13,15,09,22.70
2023,05,13,15,10,22.70
2023,05,13,15,11,22.60
2023,05,13,15,12,22.60
2023,05,13,15,13,22.60
2023,05,13,15,14,22.70
2023,05,13,15,15,22.70
2023,05,13,15,16,22.70
2023,05,13,15,17,22.80
2023,05,13,15,18,22.90
2023,05,13,15,19,22.90
2023,05,13,15,20,22.90
2023,05,13,15,21,23.00
2023,05,13,15,22,23.10
2023,05,13,15,23,23.00
2023,05,13,15,24,23.00
2023,05,13,15,25,23.00
2023,05,13,15,26,23.00
2023,05,13,15,27,22.90
2023,05,13,15,28,22.90
2023,05,13,15,29,22.90
2023,05,13,15,30,23.10
2023,05,13,15,31,23.10
2023,05,13,15,32,23.00
2023,05,13,15,33,23.00
2023,05,13,15,34,22.90
2023,05,13,15,35,22.90
2023,05,13,15,36,22.90
2023,05,13,15,37,22.90
2023,05,13,15,38,22.90
2023,05,13,15,39,22.80
2023,05,13,15,40,22.80
2023,05,13,15,41,22.90
2023,05,13,15,42,22.90
2023,05,13,15,43,23.10
2023,05,13,15,44,23.30
2023,05,13,15,45,23.40
2023,05,13,15,46,23.50
2023,05,13,15,47,23.60
2023,05,13,15,48,23.60
2023,05,13,15,49,23.70
2023,05,13,15,50,23.70
2023,05,13,15,51,23.70
2023,05,13,15,52,23.70
2023,05,13,15,53,23.70
2023,05,13,15,54,23.60
2023,05,13,15,55,23.40
2023,05,13,15,56,23.30
2023,05,13,15,57,23.20
2023,05,13,15,58,23.00
2023,05,13,15,59,22.80
2023,05,13,16,00,22.60
2023,05,13,16,01,22.60
2023,05,13,16,02,22.60
2023,05,13,16,03,22.80
2023,05,13,16,04,22.90
2023,05,13,16,05,23.00
2023,05,13,16,06,23.00
2023,05,13,16,07,23.10
2023,05,13,16,08,23.10
2023,05,13,16,09,23.00
2023,05,13,16,10,23.00
2023,05,13,16,11,23.00
2023,05,13,16,12,23.00
2023,05,13,16,13,23.10
2023,05,13,16,14,23.10
2023,05,13,16,15,23.00
2023,05,13,16,16,23.00
2023,05,13,16,17,23.10
2023,05,13,16,18,23.00
2023,05,13,16,19,23.00
2023,05,13,16,20,23.00
2023,05,13,16,21,22.90
2023,05,13,16,22,22.90
2023,05,13,16,23,23.00
2023,05,13,16,24,22.90
2023,05,13,16,25,22.90
2023,05,13,16,26,23.00
2023,05,13,16,27,23.10
2023,05,13,16,28,23.10
2023,05,13,16,29,23.00
2023,05,13,16,30,23.00
2023,05,13,16,31,23.00
2023,05,13,16,32,23.20
2023,05,13,16,33,23.30
2023,05,13,16,34,23.40
2023,05,13,16,35,23.40
2023,05,13,16,36,23.40
2023,05,13,16,37,23.30
2023,05,13,16,38,23.20
2023,05,13,16,39,23.00
2023,05,13,16,40,22.80
2023,05,13,16,41,22.80
2023,05,13,16,42,22.80
2023,05,13,16,43,22.80
2023,05,13,16,44,22.80
2023,05,13,16,45,22.80
2023,05,13,16,46,22.80
2023,05,13,16,47,22.80
2023,05,13,16,48,22.80
2023,05,13,16,49,22.80
2023,05,13,16,50,22.80
2023,05,13,16,51,23.20
2023,05,13,16,52,23.20
2023,05,13,16,53,23.10
2023,05,13,16,54,23.00
2023,05,13,16,55,23.00
2023,05,13,16,56,23.00
2023,05,13,16,57,22.80
2023,05,13,16,58,22.80
2023,05,13,16,59,22.70
2023,05,13,17,00,22.60
2023,05,13,17,01,22.30
2023,05,13,17,02,22.20
2023,05,13,17,03,22.30
2023,05,13,17,04,22.40
2023,05,13,17,05,22.60
2023,05,13,17,06,22.60
2023,05,13,17,07,22.90
2023,05,13,17,08,22.90
2023,05,13,17,09,22.80
2023,05,13,17,10,22.80
2023,05,13,17,11,22.70
2023,05,13,17,12,22.60
2023,05,13,17,13,22.50
2023,05,13,17,14,22.50
2023,05,13,17,15,22.60
2023,05,13,17,16,22.70
2023,05,13,17,17,22.80
2023,05,13,17,18,23.00
2023,05,13,17,19,23.20